Temp
3 3 3 3 3 3 3 3 3 3 3 3 3 3 3 2 2 2 2 2 1 1 1 1 1 1 1 1 1 1 1 0 0 0 0 0 0 -0 -0 -0 -0 -0 -0 -0 -0 -0 -1 -1 -1 -1 -1 -1 -1 -1 -0 -0 -0 -0 -0 -0 -1 -1 -1 -1 -1 -1 -1 -1 -2
3 3 3 3 3 3 3 3 3 3 3 3 3 2 2 2 2 2 2 1 1 1 1 1 1 1 1 1 1 0 0 0 0 0 -0 -0 -0 -0 -0 -0 -0 -1 -1 -1 -1 -1 -1 -1 -1 -1 -1 -1 -1 -1 -1 -1 -1 -1 -1 -1 -1 -1 -1 -1 -2 -2 -2 -2 -2
3 3 3 3 3 3 3 3 3 3 3 3 2 2 2 2 2 1 1 1 1 1 1 1 1 1 1 1 0 0 0 0 -0 -0 -0 -0 -0 -0 -1 -1 -1 -1 -1 -1 -1 -1 -1 -1 -1 -1 -1 -1 -1 -1 -1 -1 -1 -1 -1 -1 -1 -1 -2 -2 -2 -2 -2 -3 -3
3 3 3 3 3 3 3 3 3 3 3 2 2 2 2 2 1 1 1 1 1 1 1 1 1 1 0 0 0 0 -0 -0 -0 -0 -0 -1 -1 -1 -1 -1 -1 -1 -1 -1 -1 -1 -1 -1 -1 -2 -2 -2 -2 -2 -1 -1 -1 -1 -2 -2 -2 -2 -2 -2 -2 -2 -3 -3 -3
3 3 3 3 3 3 3 3 3 2 2 2 2 2 1 1 1 1 1 1 1 1 1 1 0 0 0 0 -0 -0 -0 -0 -1 -1 -1 -1 -1 -1 -1 -1 -1 -1 -1 -1 -1 -1 -1 -1 -2 -2 -2 -2 -2 -2 -2 -2 -2 -2 -2 -2 -2 -2 -3 -3 -3 -3 -3 -4 -4
3 3 3 3 3 2 2 2 2 2 2 2 2 1 1 1 1 1 1 1 1 1 0 0 0 0 -0 -0 -0 -0 -0 -1 -1 -1 -1 -1 -1 -1 -1 -1 -1 -1 -1 -1 -1 -1 -1 -2 -2 -2 -2 -3 -3 -3 -3 -3 -3 -3 -4 -4 -4 -4 -4 -4 -4 -4 -4 -4 -4
3 3 2 2 2 2 2 2 2 2 2 1 1 1 1 1 1 1 1 1 1 0 0 0 -0 -0 -0 -0 -1 -1 -1 -1 -1 -1 -1 -1 -1 -1 -1 -1 -1 -1 -1 -1 -1 -1 -2 -2 -2 -2 -3 -3 -3 -3 -4 -4 -4 -5 -5 -5 -5 -5 -5 -4 -4 -5 -5 -5 -5
2 2 2 2 2 2 2 2 2 2 1 1 1 1 1 1 1 1 1 0 0 0 0 -0 -0 -0 -1 -1 -1 -1 -1 -1 -1 -1 -1 -1 -1 -1 -2 -2 -2 -2 -2 -2 -2 -2 -2 -2 -3 -3 -3 -4 -4 -4 -4 -5 -5 -5 -6 -6 -6 -5 -5 -5 -5 -5 -5 -5 -6
2 2 2 2 2 2 2 2 1 1 1 1 1 1 1 1 1 0 0 0 0 -0 -0 -0 -0 -1 -1 -1 -1 -1 -1 -1 -1 -1 -1 -2 -2 -2 -2 -2 -2 -2 -2 -2 -2 -2 -3 -3 -3 -4 -4 -4 -5 -5 -5 -6 -6 -6 -6 -6 -6 -6 -6 -6 -6 -6 -6 -6 -6
2 2 2 2 2 2 1 1 1 1 1 1 1 1 1 1 0 0 0 -0 -0 -0 -0 -0 -1 -1 -1 -1 -1 -1 -1 -1 -2 -2 -2 -2 -2 -2 -2 -2 -2 -2 -2 -2 -3 -3 -3 -4 -4 -4 -5 -5 -5 -6 -6 -6 -6 -7 -7 -7 -7 -6 -6 -6 -6 -6 -6 -6 -6
2 2 2 2 1 1 1 1 1 1 1 1 1 1 1 0 0 0 -0 -0 -0 -0 -0 -1 -1 -1 -1 -1 -1 -1 -2 -2 -2 -2 -2 -2 -2 -2 -2 -3 -3 -3 -3 -3 -3 -3 -4 -4 -4 -5 -5 -5 -6 -6 -6 -6 -7 -7 -7 -7 -7 -7 -7 -7 -7 -7 -7 -7 -6
2 2 2 1 1 1 1 1 1 1 1 1 1 0 0 0 0 -0 -0 -0 -0 -0 -1 -1 -1 -1 -1 -1 -1 -2 -2 -2 -2 -2 -2 -2 -3 -3 -3 -3 -3 -3 -3 -3 -3 -3 -4 -4 -5 -5 -5 -5 -6 -6 -7 -7 -7 -7 -7 -7 -7 -7 -7 -7 -7 -7 -7 -7 -6
2 1 1 1 1 1 1 1 1 1 1 0 0 0 0 0 -0 -0 -0 -0 -1 -1 -1 -1 -1 -1 -1 -2 -2 -2 -2 -2 -2 -2 -3 -3 -3 -3 -3 -3 -3 -3 -3 -3 -3 -4 -4 -5 -5 -5 -6 -6 -6 -6 -7 -7 -7 -7 -8 -8 -8 -7 -7 -7 -7 -7 -7 -7 -7
1 1 1 1 1 1 1 1 1 0 0 0 0 -0 -0 -0 -0 -0 -1 -1 -1 -1 -1 -1 -1 -1 -2 -2 -2 -2 -2 -2 -3 -3 -3 -3 -3 -3 -3 -3 -3 -3 -3 -3 -3 -4 -4 -5 -5 -5 -6 -6 -6 -6 -7 -7 -7 -7 -8 -8 -8 -8 -8 -8 -7 -7 -7 -7 -7
1 1 1 1 1 1 1 1 0 0 0 -0 -0 -0 -0 -0 -1 -1 -1 -1 -1 -1 -1 -1 -1 -2 -2 -2 -2 -2 -2 -3 -3 -3 -3 -3 -3 -3 -3 -3 -3 -3 -3 -4 -4 -4 -5 -5 -5 -5 -6 -6 -6 -7 -7 -7 -7 -8 -8 -8 -8 -8 -8 -8 -8 -8 -8 -7 -7
1 1 1 1 1 1 0 0 0 -0 -0 -0 -0 -1 -1 -1 -1 -1 -1 -1 -1 -1 -2 -2 -2 -2 -2 -2 -2 -2 -3 -3 -3 -3 -3 -3 -3 -3 -3 -3 -3 -3 -4 -4 -4 -4 -5 -5 -5 -6 -6 -7 -7 -7 -7 -7 -7 -8 -8 -8 -8 -8 -8 -8 -8 -8 -8 -8 -7
1 1 1 1 1 0 0 -0 -0 -0 -0 -1 -1 -1 -1 -1 -1 -1 -1 -1 -2 -2 -2 -2 -2 -2 -2 -2 -2 -2 -3 -3 -3 -3 -3 -3 -3 -3 -3 -4 -4 -4 -4 -4 -5 -5 -5 -5 -5 -6 -6 -7 -7 -7 -8 -8 -8 -8 -8 -8 -8 -8 -8 -8 -8 -8 -8 -8 -8
1 1 1 1 0 0 -0 -0 -0 -1 -1 -1 -1 -1 -1 -1 -1 -1 -1 -2 -2 -2 -2 -2 -2 -2 -2 -2 -2 -2 -3 -3 -3 -3 -4 -4 -4 -4 -4 -4 -4 -4 -4 -5 -5 -5 -6 -6 -6 -6 -7 -7 -8 -8 -8 -8 -8 -8 -8 -8 -8 -8 -8 -8 -8 -8 -8 -8 -8
1 1 0 0 -0 -0 -0 -1 -1 -1 -1 -1 -1 -1 -1 -1 -1 -1 -2 -2 -2 -2 -2 -2 -2 -2 -2 -2 -2 -3 -3 -3 -4 -4 -4 -4 -4 -4 -4 -4 -4 -5 -5 -5 -6 -6 -6 -6 -7 -7 -7 -8 -8 -8 -8 -8 -8 -8 -8 -8 -8 -8 -8 -8 -8 -8 -8 -8 -8
1 0 0 -0 -0 -1 -1 -1 -1 -1 -1 -1 -1 -1 -1 -1 -2 -2 -2 -2 -2 -2 -2 -2 -2 -2 -2 -3 -3 -3 -3 -4 -4 -4 -4 -4 -5 -5 -5 -5 -5 -5 -6 -6 -6 -6 -7 -7 -7 -8 -8 -8 -8 -8 -8 -8 -8 -8 -8 -8 -8 -8 -8 -8 -8 -8 -8 -8 -8
0 -0 -0 -0 -1 -1 -1 -1 -1 -1 -1 -1 -1 -1 -1 -2 -2 -2 -2 -2 -2 -2 -2 -2 -2 -3 -3 -3 -3 -4 -4 -4 -4 -5 -5 -5 -5 -5 -5 -6 -6 -6 -6 -6 -7 -7 -7 -8 -8 -8 -8 -8 -8 -8 -8 -8 -8 -8 -8 -8 -8 -8 -8 -8 -8 -8 -8 -8 -8
-0 -0 -1 -1 -1 -1 -1 -1 -1 -1 -1 -1 -1 -1 -2 -2 -2 -2 -2 -2 -2 -2 -2 -2 -3 -3 -3 -4 -4 -4 -4 -5 -5 -5 -5 -5 -5 -6 -6 -6 -7 -7 -7 -7 -7 -7 -8 -8 -8 -8 -8 -8 -8 -8 -8 -8 -8 -8 -8 -8 -8 -8 -8 -8 -8 -8 -8 -8 -8
-0 -1 -1 -1 -1 -1 -1 -1 -1 -1 -1 -1 -2 -2 -2 -2 -2 -2 -2 -2 -2 -2 -3 -3 -3 -4 -4 -4 -5 -5 -5 -5 -5 -5 -6 -6 -6 -6 -6 -7 -7 -7 -8 -8 -8 -8 -8 -8 -8 -8 -8 -8 -8 -8 -8 -8 -8 -8 -8 -8 -8 -8 -8 -8 -8 -8 -8 -8 -8
-1 -1 -1 -1 -1 -1 -1 -1 -1 -1 -1 -2 -2 -2 -2 -2 -2 -2 -2 -2 -2 -3 -3 -3 -4 -4 -4 -5 -5 -5 -6 -6 -6 -6 -6 -7 -7 -7 -7 -7 -8 -8 -8 -8 -8 -9 -9 -8 -8 -8 -8 -8 -8 -8 -8 -8 -8 -8 -8 -8 -7 -7 -7 -7 -7 -7 -7 -7 -8
-1 -1 -1 -1 -1 -1 -1 -1 -2 -2 -2 -2 -2 -2 -2 -2 -2 -2 -2 -3 -3 -3 -3 -4 -4 -4 -5 -5 -6 -6 -6 -7 -7 -7 -7 -7 -7 -8 -8 -8 -8 -8 -9 -9 -9 -9 -9 -8 -8 -8 -8 -8 -8 -8 -8 -8 -8 -7 -7 -7 -7 -7 -7 -7 -7 -7 -7 -8 -8
-1 -1 -1 -1 -1 -1 -2 -2 -2 -2 -2 -2 -2 -2 -2 -2 -2 -3 -3 -3 -3 -4 -4 -4 -5 -5 -5 -6 -6 -6 -7 -7 -7 -8 -8 -8 -8 -8 -8 -8 -9 -9 -9 -9 -9 -9 -9 -8 -8 -8 -8 -8 -8 -7 -7 -7 -7 -7 -7 -7 -7 -7 -7 -7 -7 -8 -8 -8 -8
-1 -1 -1 -2 -2 -2 -2 -2 -2 -2 -2 -2 -2 -2 -2 -3 -3 -3 -3 -4 -4 -4 -5 -5 -5 -6 -6 -7 -7 -7 -7 -7 -8 -8 -8 -9 -9 -9 -9 -9 -9 -9 -9 -9 -9 -9 -9 -8 -8 -8 -8 -8 -7 -7 -7 -7 -7 -7 -7 -7 -7 -7 -7 -7 -8 -8 -8 -7 -7
-1 -2 -2 -2 -2 -2 -2 -2 -2 -2 -2 -2 -3 -3 -3 -3 -3 -4 -4 -4 -4 -5 -5 -5 -6 -6 -7 -7 -7 -8 -8 -8 -8 -8 -9 -9 -9 -9 -9 -9 -9 -9 -9 -9 -9 -9 -9 -8 -8 -8 -8 -8 -8 -7 -7 -7 -7 -7 -7 -7 -7 -8 -8 -8 -8 -8 -7 -7 -7
-2 -2 -2 -2 -2 -2 -2 -2 -2 -2 -3 -3 -3 -3 -3 -4 -4 -4 -4 -5 -5 -5 -6 -6 -6 -7 -7 -8 -8 -8 -8 -8 -8 -9 -9 -9 -10 -10 -10 -10 -9 -9 -9 -9 -9 -9 -9 -8 -8 -8 -8 -8 -8 -8 -8 -8 -8 -8 -8 -8 -8 -8 -8 -8 -7 -7 -7 -7 -7
-2 -2 -2 -2 -2 -2 -2 -2 -3 -3 -3 -3 -3 -4 -4 -4 -4 -4 -5 -5 -5 -6 -6 -7 -7 -7 -7 -8 -8 -8 -8 -9 -9 -9 -10 -10 -10 -10 -10 -9 -9 -9 -9 -9 -9 -9 -9 -9 -9 -9 -8 -8 -8 -8 -8 -8 -8 -8 -8 -8 -8 -8 -7 -7 -7 -7 -6 -6 -6
-2 -2 -2 -2 -2 -2 -3 -3 -3 -3 -3 -4 -4 -4 -4 -4 -5 -5 -5 -5 -6 -6 -7 -7 -7 -7 -8 -8 -8 -9 -9 -9 -10 -10 -10 -10 -10 -9 -9 -9 -9 -9 -9 -9 -9 -9 -9 -9 -9 -9 -9 -9 -8 -8 -8 -8 -8 -8 -8 -8 -7 -7 -7 -7 -6 -6 -6 -7 -7
-2 -2 -3 -3 -3 -3 -3 -3 -3 -4 -4 -4 -4 -4 -5 -5 -5 -5 -6 -6 -6 -7 -7 -7 -7 -8 -8 -8 -9 -9 -10 -10 -10 -10 -10 -10 -10 -9 -9 -9 -9 -9 -9 -9 -9 -9 -9 -9 -9 -9 -9 -9 -8 -8 -8 -8 -8 -8 -8 -7 -7 -7 -7 -7 -7 -7 -7 -7 -7
-3 -3 -3 -3 -3 -3 -3 -3 -4 -4 -4 -4 -5 -5 -5 -5 -5 -6 -6 -6 -7 -7 -7 -8 -8 -8 -9 -9 -9 -10 -10 -10 -10 -10 -10 -10 -10 -10 -10 -10 -10 -10 -10 -10 -10 -9 -9 -9 -9 -9 -9 -8 -8 -8 -8 -8 -8 -8 -8 -8 -8 -8 -8 -8 -8 -8 -8 -7 -7
-3 -3 -3 -3 -3 -4 -4 -4 -4 -4 -5 -5 -5 -5 -5 -5 -6 -6 -6 -7 -7 -8 -8 -8 -9 -9 -9 -10 -10 -10 -10 -10 -10 -10 -10 -10 -10 -10 -10 -10 -10 -10 -10 -10 -10 -9 -9 -9 -9 -9 -9 -8 -8 -8 -8 -8 -8 -8 -8 -8 -8 -8 -8 -7 -7 -7 -7 -7 -7
-3 -3 -3 -4 -4 -4 -4 -4 -4 -5 -5 -5 -5 -5 -6 -6 -6 -6 -7 -7 -8 -8 -8 -9 -9 -10 -10 -10 -10 -10 -10 -10 -10 -10 -10 -10 -10 -10 -10 -10 -10 -10 -10 -10 -10 -10 -9 -9 -9 -9 -9 -8 -8 -8 -8 -8 -8 -8 -8 -8 -8 -8 -7 -7 -7 -7 -7 -6 -6
-3 -4 -4 -4 -4 -4 -4 -5 -5 -5 -5 -5 -6 -6 -6 -6 -6 -7 -7 -8 -8 -8 -9 -9 -10 -10 -10 -10 -10 -10 -10 -10 -10 -10 -10 -10 -10 -10 -10 -10 -10 -10 -10 -10 -10 -10 -9 -9 -9 -9 -9 -8 -8 -8 -8 -8 -8 -8 -8 -8 -7 -7 -7 -7 -6 -6 -6 -6 -6
-4 -4 -4 -4 -4 -5 -5 -5 -5 -5 -6 -6 -6 -6 -6 -7 -7 -7 -8 -8 -9 -9 -10 -10 -10 -10 -10 -10 -10 -10 -10 -10 -10 -10 -10 -10 -10 -10 -10 -10 -10 -10 -10 -10 -10 -9 -9 -9 -9 -9 -8 -8 -8 -8 -8 -8 -8 -8 -7 -7 -7 -7 -6 -6 -6 -6 -6 -6 -6
-4 -4 -4 -5 -5 -5 -5 -5 -6 -6 -6 -6 -7 -7 -7 -7 -7 -8 -8 -9 -10 -10 -10 -10 -10 -10 -10 -10 -10 -10 -10 -10 -10 -10 -10 -10 -10 -10 -10 -10 -10 -10 -10 -9 -9 -9 -9 -9 -9 -8 -8 -8 -8 -8 -8 -8 -7 -7 -7 -7 -7 -6 -6 -6 -6 -6 -6 -5 -5
-4 -4 -5 -5 -5 -5 -6 -6 -6 -6 -7 -7 -7 -7 -7 -8 -8 -9 -9 -10 -10 -11 -11 -11 -11 -11 -11 -11 -11 -10 -10 -10 -10 -10 -10 -10 -10 -10 -10 -10 -10 -10 -9 -9 -9 -9 -8 -8 -8 -8 -8 -8 -8 -8 -7 -7 -7 -7 -7 -7 -6 -6 -6 -6 -6 -6 -5 -5 -5
-4 -5 -5 -5 -5 -6 -6 -6 -6 -7 -7 -7 -7 -8 -8 -9 -9 -9 -10 -10 -10 -11 -11 -11 -11 -11 -11 -11 -11 -10 -10 -10 -10 -11 -11 -11 -10 -10 -10 -10 -10 -9 -9 -8 -8 -8 -8 -8 -7 -7 -7 -7 -7 -7 -7 -7 -7 -7 -7 -6 -6 -6 -6 -6 -6 -5 -5 -5 -5
-5 -5 -5 -5 -6 -6 -6 -7 -7 -7 -7 -7 -8 -8 -9 -10 -10 -10 -10 -11 -11 -11 -11 -11 -11 -11 -11 -11 -11 -10 -10 -11 -11 -11 -11 -10 -10 -10 -10 -10 -10 -9 -8 -8 -7 -7 -7 -7 -7 -7 -7 -7 -7 -7 -7 -7 -7 -7 -6 -6 -6 -6 -6 -6 -5 -5 -5 -5 -5
Height
1508 1507 1506 1505 1503 1502 1501 1500 1499 1498 1496 1495 1494 1493 1492 1491 1489 1488 1487 1486 1485 1483 1482 1481 1480 1478 1477 1477 1476 1475 1473 1472 1472 1471 1470 1469 1467 1467 1466 1465 1464 1462 1462 1460 1459 1458 1457 1456 1455 1453 1451 1449 1448 1447 1446 1445 1445 1443 1442 1441 1440 1439 1437 1436 1435 1434 1434 1433 1432
1506 1505 1504 1503 1502 1501 1499 1498 1497 1496 1495 1493 1492 1491 1490 1489 1487 1486 1485 1484 1483 1481 1480 1478 1477 1477 1475 1474 1473 1472 1471 1470 1469 1468 1467 1466 1465 1464 1463 1462 1461 1460 1459 1457 1457 1455 1454 1453 1452 1450 1448 1446 1445 1444 1443 1442 1442 1441 1439 1438 1437 1436 1435 1433 1432 1431 1431 1430 1429
1504 1503 1502 1501 1500 1499 1498 1497 1495 1494 1493 1492 1491 1490 1488 1487 1486 1484 1483 1482 1481 1479 1478 1477 1475 1474 1473 1472 1471 1470 1469 1468 1467 1466 1464 1463 1462 1462 1461 1459 1458 1457 1456 1455 1454 1452 1451 1450 1448 1447 1445 1443 1442 1441 1440 1439 1439 1438 1436 1435 1434 1433 1432 1430 1429 1428 1427 1427 1426
1502 1502 1500 1499 1498 1497 1496 1495 1493 1492 1491 1490 1489 1488 1487 1485 1484 1482 1481 1480 1478 1477 1476 1475 1473 1472 1471 1470 1469 1468 1467 1466 1464 1463 1462 1461 1460 1459 1458 1457 1456 1454 1453 1452 1451 1450 1448 1447 1445 1443 1442 1440 1439 1437 1437 1436 1435 1434 1433 1432 1431 1430 1428 1427 1426 1425 1425 1423 1422
1500 1499 1498 1497 1496 1495 1494 1493 1492 1490 1489 1488 1487 1486 1484 1483 1482 1480 1479 1477 1476 1475 1474 1473 1471 1470 1469 1468 1467 1466 1464 1463 1462 1461 1459 1458 1457 1456 1455 1454 1453 1452 1451 1449 1448 1447 1446 1444 1442 1440 1439 1437 1436 1434 1433 1433 1432 1431 1429 1428 1427 1427 1426 1424 1423 1422 1422 1420 1419
1498 1497 1497 1495 1494 1493 1492 1491 1490 1488 1487 1486 1485 1483 1482 1481 1480 1478 1477 1475 1474 1473 1472 1471 1469 1468 1467 1466 1464 1463 1462 1461 1460 1458 1457 1456 1454 1453 1452 1451 1450 1449 1448 1447 1446 1444 1443 1441 1439 1437 1435 1434 1433 1431 1430 1430 1428 1427 1426 1425 1424 1424 1423 1422 1420 1420 1419 1417 1416
1496 1495 1494 1493 1492 1492 1490 1489 1488 1487 1485 1484 1483 1482 1480 1479 1477 1476 1475 1473 1472 1471 1469 1468 1467 1466 1464 1463 1462 1461 1459 1458 1457 1456 1454 1453 1452 1450 1449 1448 1447 1446 1445 1444 1442 1441 1440 1438 1436 1434 1432 1431 1430 1428 1427 1427 1426 1424 1423 1422 1421 1420 1420 1418 1417 1417 1416 1414 1413
1494 1493 1492 1492 1491 1489 1488 1487 1486 1484 1483 1482 1481 1479 1478 1477 1476 1474 1472 1471 1470 1468 1467 1466 1465 1463 1462 1461 1459 1458 1457 1455 1454 1453 1452 1450 1449 1447 1446 1445 1444 1443 1442 1441 1439 1438 1436 1435 1433 1431 1429 1428 1426 1425 1424 1423 1422 1421 1420 1418 1417 1417 1416 1415 1414 1413 1412 1411 1410
1492 1491 1491 1490 1489 1487 1486 1485 1484 1482 1481 1480 1478 1477 1476 1475 1473 1472 1470 1469 1467 1466 1465 1464 1462 1461 1460 1458 1457 1455 1454 1452 1451 1450 1448 1447 1446 1444 1443 1442 1441 1439 1438 1437 1436 1434 1432 1431 1429 1427 1426 1425 1423 1422 1421 1420 1419 1418 1416 1415 1414 1413 1412 1412 1411 1410 1409 1408 1407
1490 1489 1489 1488 1487 1485 1484 1483 1482 1480 1479 1477 1477 1475 1474 1473 1471 1470 1468 1467 1465 1464 1462 1462 1460 1458 1457 1456 1454 1453 1451 1450 1448 1447 1445 1444 1443 1441 1440 1438 1437 1436 1434 1433 1432 1431 1429 1427 1425 1424 1422 1422 1420 1419 1418 1417 1416 1415 1413 1412 1411 1410 1409 1408 1407 1407 1406 1404 1403
1488 1487 1487 1486 1485 1483 1482 1481 1479 1478 1477 1476 1474 1473 1472 1471 1469 1467 1466 1464 1463 1462 1460 1459 1458 1456 1454 1453 1452 1450 1448 1447 1445 1444 1442 1441 1439 1438 1437 1435 1433 1432 1431 1429 1428 1427 1425 1423 1422 1421 1419 1418 1417 1417 1415 1414 1413 1412 1410 1409 1408 1407 1406 1404 1404 1403 1402 1401 1400
1487 1486 1485 1484 1482 1481 1480 1478 1477 1476 1475 1473 1472 1471 1469 1468 1467 1465 1464 1462 1461 1459 1458 1457 1455 1453 1452 1450 1448 1447 1446 1444 1442 1441 1439 1437 1436 1434 1433 1431 1430 1428 1427 1426 1425 1424 1422 1420 1419 1418 1416 1415 1415 1413 1412 1411 1410 1408 1407 1405 1405 1403 1402 1400 1400 1400 1399 1398 1397
1485 1484 1483 1482 1480 1479 1478 1477 1475 1474 1472 1471 1470 1468 1467 1465 1464 1463 1461 1459 1458 1457 1455 1454 1452 1451 1449 1447 1445 1444 1442 1441 1439 1437 1435 1433 1432 1431 1429 1427 1427 1425 1424 1422 1422 1421 1419 1417 1416 1415 1413 1412 1411 1410 1409 1408 1407 1405 1403 1402 1401 1400 1398 1397 1396 1396 1395 1394 1393
1483 1482 1481 1479 1478 1477 1476 1474 1473 1472 1470 1469 1467 1466 1464 1463 1462 1460 1459 1457 1455 1454 1452 1451 1449 1448 1446 1444 1442 1441 1439 1437 1436 1434 1432 1430 1429 1427 1426 1424 1423 1422 1421 1419 1418 1417 1416 1414 1412 1411 1410 1408 1407 1406 1405 1404 1403 1402 1400 1399 1397 1396 1394 1393 1392 1392 1391 1390 1389
1481 1480 1478 1477 1476 1475 1474 1472 1471 1469 1468 1466 1465 1463 1462 1460 1459 1458 1456 1454 1452 1451 1449 1447 1446 1444 1443 1441 1440 1437 1436 1434 1432 1430 1429 1427 1426 1424 1423 1422 1420 1419 1418 1416 1415 1414 1412 1411 1409 1408 1407 1405 1403 1402 1401 1400 1399 1397 1396 1395 1393 1392 1391 1389 1389 1388 1387 1386 1385
1478 1477 1477 1475 1474 1473 1472 1470 1468 1467 1465 1464 1462 1461 1459 1458 1456 1455 1453 1452 1450 1448 1446 1445 1443 1441 1439 1438 1437 1435 1433 1431 1429 1427 1426 1424 1422 1421 1420 1418 1417 1416 1414 1413 1411 1410 1409 1407 1406 1404 1403 1401 1400 1398 1397 1396 1395 1394 1392 1391 1390 1388 1387 1386 1385 1384 1383 1382 1382
1477 1476 1475 1473 1472 1471 1469 1468 1466 1465 1463 1462 1460 1458 1457 1455 1453 1452 1450 1449 1447 1445 1443 1442 1440 1438 1437 1435 1433 1432 1430 1428 1426 1424 1423 1421 1419 1418 1417 1415 1414 1412 1411 1409 1408 1406 1405 1403 1402 1401 1399 1398 1396 1395 1393 1392 1391 1389 1388 1387 1386 1385 1383 1382 1382 1381 1380 1379 1377
1475 1474 1472 1471 1470 1468 1467 1465 1464 1462 1461 1459 1457 1456 1454 1452 1451 1449 1447 1446 1444 1442 1440 1438 1437 1436 1434 1432 1430 1429 1427 1425 1423 1421 1420 1418 1417 1415 1413 1412 1410 1409 1407 1406 1404 1402 1401 1399 1398 1397 1395 1394 1392 1391 1390 1388 1387 1386 1384 1383 1382 1381 1379 1378 1377 1377 1376 1375 1373
1472 1472 1470 1469 1467 1466 1464 1463 1461 1459 1458 1456 1455 1453 1451 1450 1448 1446 1444 1443 1442 1440 1438 1436 1434 1432 1431 1429 1427 1426 1424 1422 1420 1418 1416 1415 1413 1411 1410 1408 1407 1405 1404 1402 1400 1399 1397 1396 1394 1393 1392 1390 1389 1387 1386 1385 1383 1382 1380 1379 1378 1377 1375 1374 1373 1372 1372 1371 1370
1471 1469 1468 1466 1465 1463 1462 1460 1458 1457 1455 1453 1452 1450 1448 1447 1445 1443 1442 1440 1439 1437 1435 1433 1431 1429 1427 1426 1424 1422 1421 1419 1417 1415 1413 1411 1410 1408 1406 1404 1403 1401 1400 1398 1397 1395 1393 1392 1391 1389 1388 1387 1385 1384 1382 1381 1379 1378 1377 1375 1374 1372 1371 1370 1369 1368 1367 1366 1366
1468 1467 1465 1463 1462 1460 1459 1457 1456 1454 1452 1451 1449 1447 1446 1444 1442 1441 1439 1437 1436 1434 1432 1430 1428 1426 1424 1422 1421 1419 1417 1416 1414 1412 1409 1407 1406 1404 1402 1401 1399 1397 1396 1395 1393 1391 1390 1388 1387 1386 1385 1383 1382 1380 1379 1377 1376 1374 1372 1371 1370 1368 1367 1366 1365 1364 1363 1362 1362
1465 1464 1462 1461 1459 1457 1456 1455 1453 1451 1450 1448 1446 1445 1443 1441 1439 1438 1436 1435 1433 1431 1429 1427 1426 1423 1422 1419 1417 1415 1413 1412 1410 1408 1406 1404 1402 1400 1399 1397 1396 1394 1392 1390 1389 1387 1386 1385 1384 1382 1381 1380 1378 1376 1375 1373 1372 1370 1368 1367 1365 1364 1363 1362 1361 1360 1359 1358 1357
1463 1461 1460 1458 1457 1455 1454 1452 1450 1449 1447 1445 1443 1442 1440 1438 1437 1435 1434 1432 1430 1428 1427 1424 1422 1421 1418 1416 1414 1412 1410 1408 1406 1404 1402 1401 1399 1397 1395 1394 1392 1390 1388 1387 1385 1384 1382 1381 1380 1379 1377 1376 1374 1372 1371 1370 1368 1367 1364 1363 1361 1360 1359 1358 1357 1356 1355 1354 1354
1460 1458 1457 1456 1454 1453 1451 1449 1448 1446 1444 1442 1441 1439 1437 1436 1434 1432 1431 1429 1427 1426 1423 1421 1419 1417 1415 1413 1411 1409 1407 1404 1402 1400 1398 1397 1396 1394 1392 1390 1388 1387 1385 1383 1382 1381 1380 1379 1377 1376 1374 1373 1371 1369 1367 1366 1364 1363 1361 1359 1357 1356 1355 1354 1353 1353 1352 1351 1350
1457 1456 1454 1453 1452 1450 1448 1447 1445 1443 1442 1440 1438 1436 1435 1433 1431 1430 1428 1426 1424 1422 1420 1418 1416 1414 1412 1410 1407 1406 1404 1402 1399 1397 1395 1393 1392 1390 1388 1387 1385 1383 1382 1380 1379 1378 1377 1377 1375 1373 1372 1370 1368 1366 1364 1362 1361 1359 1357 1356 1354 1353 1352 1351 1350 1349 1348 1347 1347
1455 1453 1452 1451 1449 1447 1446 1444 1442 1441 1439 1437 1435 1434 1432 1430 1428 1427 1425 1423 1421 1419 1417 1415 1413 1411 1408 1406 1404 1402 1400 1398 1397 1394 1392 1390 1388 1386 1385 1383 1381 1380 1378 1377 1376 1375 1374 1373 1372 1371 1369 1367 1365 1363 1361 1359 1357 1356 1355 1353 1352 1350 1349 1347 1346 1345 1344 1343 1342
1452 1451 1450 1448 1447 1445 1443 1442 1440 1438 1436 1434 1433 1431 1429 1427 1426 1424 1422 1420 1417 1416 1414 1412 1409 1407 1405 1403 1400 1398 1397 1395 1393 1391 1389 1387 1385 1382 1381 1379 1377 1376 1374 1373 1372 1371 1370 1369 1368 1367 1366 1364 1362 1360 1358 1356 1354 1353 1352 1350 1348 1347 1345 1344 1342 1341 1339 1338 1337
1450 1448 1447 1445 1444 1442 1440 1439 1437 1435 1433 1432 1430 1428 1426 1425 1422 1421 1418 1417 1414 1412 1410 1408 1406 1404 1402 1399 1397 1395 1393 1391 1389 1387 1385 1383 1381 1379 1377 1376 1374 1372 1371 1370 1369 1368 1367 1366 1364 1363 1362 1361 1359 1357 1355 1353 1351 1349 1348 1346 1345 1343 1342 1340 1338 1337 1335 1334 1333
1448 1446 1444 1442 1441 1439 1437 1436 1434 1432 1431 1429 1427 1425 1423 1422 1420 1417 1416 1413 1411 1409 1407 1405 1402 1400 1398 1396 1394 1392 1390 1387 1386 1384 1382 1380 1378 1376 1374 1372 1371 1369 1368 1367 1366 1365 1363 1362 1361 1360 1359 1357 1356 1354 1352 1349 1347 1346 1344 1342 1341 1339 1338 1336 1334 1333 1331 1330 1329
1446 1444 1442 1440 1438 1437 1435 1433 1432 1430 1428 1426 1424 1422 1420 1418 1417 1414 1412 1410 1408 1406 1404 1402 1399 1397 1395 1392 1390 1388 1386 1384 1382 1381 1379 1377 1375 1373 1371 1369 1368 1366 1365 1364 1363 1361 1360 1358 1357 1356 1354 1353 1352 1350 1348 1346 1344 1342 1340 1338 1337 1335 1334 1332 1331 1329 1328 1327 1326
1443 1441 1439 1437 1436 1434 1432 1431 1429 1427 1425 1423 1422 1419 1417 1415 1413 1411 1409 1407 1405 1402 1400 1398 1396 1394 1391 1389 1387 1385 1382 1381 1379 1377 1376 1374 1372 1370 1368 1366 1364 1363 1362 1360 1359 1357 1356 1354 1353 1352 1350 1349 1348 1347 1344 1342 1340 1338 1337 1334 1333 1332 1331 1330 1328 1327 1325 1324 1323
1441 1439 1437 1435 1433 1431 1430 1428 1426 1424 1422 1421 1418 1417 1414 1412 1410 1408 1406 1404 1402 1399 1397 1394 1392 1390 1387 1385 1384 1382 1380 1378 1376 1374 1373 1371 1369 1367 1365 1363 1361 1359 1358 1357 1356 1354 1352 1351 1349 1348 1347 1345 1344 1342 1341 1339 1337 1335 1333 1331 1330 1328 1327 1327 1325 1323 1321 1320 1319
1438 1437 1435 1432 1431 1429 1427 1425 1423 1422 1420 1417 1416 1413 1411 1409 1407 1405 1403 1401 1399 1396 1394 1391 1389 1387 1384 1382 1380 1378 1377 1375 1373 1372 1370 1368 1366 1364 1362 1359 1357 1356 1355 1353 1352 1350 1348 1347 1345 1344 1343 1342 1340 1338 1337 1335 1333 1331 1329 1327 1326 1324 1323 1322 1320 1318 1317 1316 1314
1436 1434 1432 1430 1428 1426 1424 1422 1421 1419 1417 1414 1412 1410 1408 1406 1404 1401 1399 1397 1395 1393 1391 1388 1386 1384 1382 1380 1378 1376 1374 1372 1371 1369 1367 1365 1363 1361 1358 1356 1354 1352 1351 1350 1348 1347 1345 1343 1342 1340 1339 1338 1336 1334 1332 1331 1329 1327 1325 1323 1321 1319 1318 1317 1315 1314 1312 1311 1310
1433 1432 1429 1427 1426 1424 1422 1420 1417 1416 1414 1411 1409 1407 1405 1403 1401 1398 1396 1394 1392 1389 1387 1385 1383 1381 1379 1377 1376 1374 1372 1370 1368 1366 1364 1362 1360 1358 1355 1352 1350 1349 1348 1347 1345 1343 1341 1340 1338 1337 1335 1334 1332 1330 1328 1327 1325 1322 1321 1318 1317 1315 1313 1312 1311 1309 1308 1307 1306
1431 1429 1427 1425 1423 1421 1419 1417 1415 1412 1410 1408 1406 1404 1402 1399 1397 1395 1393 1391 1388 1386 1384 1382 1380 1378 1377 1375 1373 1372 1370 1367 1365 1363 1361 1359 1357 1355 1352 1349 1347 1345 1344 1343 1341 1339 1338 1336 1335 1333 1332 1331 1329 1327 1325 1323 1321 1318 1316 1314 1312 1311 1309 1308 1307 1305 1304 1303 1302
1429 1427 1425 1422 1420 1418 1416 1414 1412 1409 1407 1405 1403 1401 1399 1396 1394 1392 1390 1388 1386 1383 1380 1379 1377 1376 1374 1372 1370 1368 1367 1365 1363 1360 1357 1356 1354 1352 1349 1346 1343 1342 1340 1339 1337 1336 1334 1333 1331 1330 1329 1327 1326 1323 1322 1320 1317 1315 1312 1311 1308 1307 1305 1304 1303 1302 1300 1299 1298
1427 1425 1422 1420 1417 1415 1413 1411 1409 1407 1404 1402 1400 1398 1396 1393 1391 1389 1387 1386 1383 1381 1378 1376 1375 1373 1371 1369 1367 1365 1363 1362 1360 1358 1355 1353 1351 1349 1347 1343 1340 1338 1337 1336 1334 1333 1331 1330 1328 1327 1326 1324 1322 1320 1318 1316 1314 1312 1309 1307 1305 1303 1302 1301 1299 1297 1296 1295 1294
1424 1422 1420 1417 1415 1413 1411 1408 1406 1404 1402 1399 1397 1395 1393 1391 1388 1386 1385 1383 1382 1380 1377 1374 1372 1370 1368 1367 1364 1362 1359 1358 1357 1355 1353 1351 1348 1347 1344 1341 1338 1335 1333 1332 1331 1330 1328 1327 1325 1324 1323 1321 1319 1317 1315 1313 1311 1308 1306 1304 1302 1300 1298 1297 1295 1293 1292 1290 1290
1422 1419 1417 1415 1413 1410 1408 1405 1403 1401 1399 1397 1394 1392 1390 1388 1386 1384 1382 1381 1380 1378 1375 1372 1370 1367 1366 1364 1362 1359 1356 1354 1353 1352 1351 1348 1346 1343 1342 1339 1336 1333 1331 1330 1328 1327 1325 1324 1322 1321 1320 1318 1317 1315 1312 1310 1308 1305 1303 1301 1299 1297 1295 1292 1291 1290 1288 1286 1285
1419 1417 1415 1412 1410 1408 1405 1402 1400 1398 1397 1394 1392 1390 1387 1386 1384 1382 1381 1379 1377 1375 1373 1370 1367 1365 1363 1362 1360 1357 1354 1352 1350 1349 1347 1345 1343 1341 1339 1336 1333 1330 1328 1327 1326 1324 1323 1321 1320 1319 1317 1316 1314 1312 1310 1308 1305 1303 1300 1298 1297 1294 1292 1289 1287 1286 1284 1282 1281
Wind_Speed
24 25 26 28 29 31 32 33 34 35 36 37 38 38 38 38 38 38 38 39 39 39 40 40 40 40 40 40 40 40 40 40 39 39 39 39 39 38 38 38 38 38 37 37 37 37 37 37 38 38 39 40 41 41 41 41 41 42 43 43 43 44 44 44 44 44 43 43 42
24 25 27 28 30 31 33 34 35 36 37 37 38 38 38 38 38 38 39 39 39 40 40 40 40 40 40 40 40 40 40 40 40 40 40 40 39 39 39 39 39 38 38 38 38 38 38 38 38 39 40 40 41 41 42 41 41 41 42 43 42 43 43 43 43 42 42 42 42
25 26 27 29 30 32 33 35 36 36 37 37 38 37 37 37 38 38 39 39 40 40 40 40 41 41 41 41 41 41 40 41 41 41 41 41 40 40 40 40 40 40 39 39 39 39 39 39 39 40 40 41 42 42 42 42 41 41 42 42 42 41 42 41 41 41 41 40 40
25 27 28 30 32 33 34 36 36 37 37 37 37 37 37 37 38 38 39 40 40 40 40 40 41 41 41 41 41 41 41 41 41 41 42 42 42 41 41 41 41 41 41 40 40 40 40 40 40 40 41 42 42 42 42 42 41 41 41 41 41 41 41 41 41 40 40 39 39
26 28 29 31 33 34 35 36 37 37 37 37 37 37 37 38 38 39 39 40 40 40 40 40 41 41 41 41 41 42 42 42 42 42 42 43 43 42 42 42 42 42 42 42 42 41 41 41 41 41 41 42 42 42 42 41 41 40 40 40 39 39 40 40 40 39 39 39 39
27 29 30 32 34 35 36 37 37 37 37 37 37 37 38 38 38 39 39 39 40 40 40 40 41 41 41 41 42 42 42 43 43 43 43 43 44 44 43 43 43 43 43 43 42 42 42 41 41 41 41 41 41 41 40 39 39 39 39 38 38 38 38 39 39 38 38 38 38
28 30 32 33 35 36 37 38 38 38 38 38 38 38 38 38 38 39 39 39 40 40 40 40 41 41 41 42 42 43 43 43 43 43 44 44 44 44 44 44 44 44 43 43 43 42 41 41 40 41 41 40 39 39 38 37 37 36 37 37 37 37 37 38 38 38 38 38 38
30 31 33 34 36 37 38 38 38 38 38 38 38 38 38 38 39 39 39 39 40 40 40 40 41 41 41 42 42 43 43 43 44 44 44 44 44 45 45 44 44 44 43 43 42 41 41 40 40 40 40 39 38 38 37 36 35 36 36 37 37 37 38 38 39 39 39 39 38
31 32 34 36 37 38 38 39 39 39 39 39 38 38 38 38 38 39 39 39 40 40 40 40 41 41 41 42 42 43 43 43 44 44 44 44 44 45 45 44 44 44 43 42 41 41 40 40 39 39 39 38 37 37 37 36 35 36 37 37 37 38 38 39 39 39 39 39 39
32 34 35 37 38 39 39 39 39 39 39 39 39 39 38 38 38 38 39 39 40 40 40 40 40 41 41 41 42 42 43 43 43 44 44 44 44 44 44 44 44 43 43 42 41 40 40 40 39 39 39 37 37 37 37 36 36 36 37 37 37 38 39 39 39 39 40 40 40
33 35 37 38 39 40 40 40 40 40 39 39 39 38 38 38 38 38 38 39 39 40 40 40 40 40 41 41 42 42 43 43 43 44 44 44 44 44 44 44 43 43 43 42 41 41 40 40 40 40 39 39 38 37 37 37 37 37 37 38 38 39 40 40 40 39 40 40 41
35 37 38 39 40 40 40 40 40 40 39 39 39 38 38 38 38 38 38 39 39 39 39 39 40 40 41 42 42 42 43 43 44 44 44 44 45 44 44 44 44 44 44 43 42 42 41 41 41 40 41 40 39 39 38 38 38 38 38 39 39 39 40 41 40 40 39 40 40
36 38 39 40 40 41 41 40 40 40 39 39 38 38 38 38 38 38 38 39 39 39 40 40 40 40 41 42 43 43 43 44 44 44 45 45 45 45 45 45 45 45 44 44 43 43 42 42 42 42 42 42 42 41 40 40 39 39 40 40 40 40 40 41 41 40 40 39 40
38 39 40 40 41 41 40 40 40 39 38 38 38 37 37 37 37 38 38 39 39 40 40 40 41 41 42 43 43 44 44 45 45 45 46 46 46 46 46 46 46 46 45 45 44 44 43 43 43 43 43 43 43 43 42 41 41 40 40 40 40 41 41 42 41 41 40 40 41
39 40 40 41 41 41 40 39 39 38 38 37 37 37 37 37 38 38 38 39 40 40 41 41 42 43 43 44 44 45 45 46 46 46 47 47 47 47 47 47 47 47 46 46 45 45 44 44 44 44 44 43 44 43 43 42 42 41 41 41 41 41 42 42 42 41 41 41 41
40 40 41 41 40 40 39 38 38 37 37 37 37 37 37 38 38 39 39 40 41 41 42 42 43 44 45 45 46 46 46 47 47 47 47 48 48 48 48 48 47 47 47 46 46 46 46 45 45 45 44 44 44 43 43 43 42 42 42 42 42 42 42 42 41 41 41 41 42
40 41 41 40 40 39 38 37 37 37 37 37 37 37 38 38 39 40 40 41 42 42 43 44 44 45 46 47 47 47 47 47 48 48 48 48 48 49 48 48 48 48 47 47 47 47 47 46 46 45 44 44 43 43 43 43 43 42 43 43 43 42 42 41 41 41 42 42 42
40 40 40 39 38 37 37 36 36 36 37 37 37 38 39 39 40 41 41 42 42 43 45 45 46 47 47 48 48 48 48 48 48 49 49 49 49 49 49 49 49 48 48 47 47 47 47 47 46 45 44 43 42 42 42 43 43 43 43 43 43 43 43 43 43 43 42 42 41
40 39 39 38 37 36 36 36 36 37 37 38 38 39 40 40 41 42 43 43 44 44 46 47 48 48 48 49 49 49 49 48 49 49 49 49 49 49 49 49 49 48 48 47 47 47 47 46 45 44 43 42 42 42 42 43 43 43 43 44 44 44 44 44 44 43 42 41 40
39 38 37 36 36 36 36 36 37 37 38 39 39 40 41 42 42 43 44 45 45 46 47 48 49 49 49 49 50 50 49 49 49 49 50 50 50 50 49 49 49 49 48 47 47 46 46 45 44 43 42 42 42 43 43 43 44 44 44 44 45 45 44 44 43 43 42 41 41
37 37 36 36 36 36 36 37 38 38 39 40 41 41 42 43 44 44 45 46 47 47 48 49 49 50 50 50 50 50 50 50 49 50 50 50 50 50 49 49 49 48 48 47 46 46 45 44 43 42 41 41 42 42 43 44 44 45 45 44 45 45 44 44 44 43 43 43 42
36 36 35 36 36 36 37 38 39 39 40 41 42 42 43 44 45 46 46 47 48 48 49 49 49 50 50 50 50 50 50 50 50 50 50 50 50 50 49 48 48 48 47 47 46 45 44 43 42 41 41 41 42 42 42 43 44 44 45 45 45 45 45 44 44 44 44 44 43
35 35 35 36 36 37 38 39 40 40 41 42 43 44 44 45 46 47 47 48 48 49 49 49 49 49 50 50 50 50 50 51 51 50 50 49 49 49 49 48 47 47 46 46 45 45 43 42 41 41 41 41 41 42 42 42 42 44 45 46 46 45 44 44 44 43 43 44 44
35 35 36 36 37 38 39 40 40 41 42 43 44 45 46 46 47 48 48 49 49 49 49 50 50 50 50 50 50 50 50 50 50 50 50 49 48 48 48 47 46 46 45 45 44 43 41 40 40 40 41 41 41 42 43 43 44 45 45 46 46 45 44 44 42 42 43 44 45
35 36 36 37 38 39 39 40 41 42 43 44 45 46 46 47 48 48 49 49 49 50 50 50 50 50 50 50 50 49 49 48 48 48 49 49 48 47 47 46 45 44 43 43 41 40 39 38 39 40 41 42 42 43 44 45 46 46 46 45 45 44 44 43 42 43 44 46 47
35 36 37 38 39 39 40 41 42 43 44 45 46 46 47 48 48 49 49 49 50 50 50 50 50 50 50 50 49 49 48 48 47 47 47 47 47 47 46 45 44 42 41 40 40 39 39 39 39 39 40 42 43 44 46 47 47 47 46 44 44 43 43 43 45 46 47 47 47
36 37 38 38 39 40 41 42 43 44 45 46 46 47 47 48 48 49 49 49 50 50 50 50 50 50 49 49 49 48 48 48 47 46 46 46 46 45 45 44 43 42 41 40 40 40 40 40 40 40 40 41 43 44 45 46 46 46 45 44 44 44 44 46 49 50 50 48 47
37 37 38 39 40 41 42 43 44 45 45 46 47 47 48 48 49 49 49 49 50 50 50 51 50 49 48 48 48 48 48 48 47 46 45 44 43 43 42 42 42 42 41 42 41 41 41 41 41 41 41 41 42 43 44 45 46 46 46 46 45 46 47 48 49 49 49 49 48
37 38 39 40 41 42 43 44 45 45 46 47 47 48 48 48 49 49 49 49 50 50 50 50 50 49 48 48 48 48 48 47 46 45 43 42 42 42 42 42 42 42 42 42 42 41 42 42 42 42 41 41 42 43 44 45 46 47 46 45 46 47 48 49 49 49 49 48 47
37 38 40 41 42 43 44 44 45 46 47 47 47 48 48 49 49 49 49 50 50 50 50 50 50 50 49 49 48 48 47 46 44 42 41 41 41 42 43 44 44 44 43 43 42 42 42 42 42 42 42 42 42 43 44 45 46 47 47 47 47 48 48 49 49 48 47 46 45
38 39 40 41 43 43 44 45 46 46 47 47 48 48 48 49 49 49 50 50 50 51 51 50 50 50 49 48 47 46 45 44 42 41 41 41 41 42 44 45 45 45 44 43 43 43 43 43 43 43 42 42 42 43 44 45 46 47 49 49 49 48 48 47 46 46 46 47 47
38 39 41 42 43 44 45 46 46 47 47 47 48 48 49 49 49 50 50 50 50 51 51 50 50 49 48 47 46 44 43 42 42 41 42 42 43 44 45 45 45 45 45 44 43 43 43 43 43 43 43 43 43 44 45 46 47 48 49 49 49 49 48 47 47 47 48 48 48
39 40 41 43 44 45 46 46 47 47 47 48 48 48 49 50 50 50 50 50 50 50 49 49 48 47 46 45 44 43 43 42 42 42 42 43 44 45 45 46 46 45 45 44 44 44 44 44 43 43 43 43 43 44 45 46 47 48 48 49 49 48 48 48 48 48 48 47 47
40 41 42 43 44 45 46 47 47 47 48 48 49 49 49 50 50 51 51 50 49 49 48 47 46 45 44 43 43 42 42 42 42 42 43 44 45 46 47 48 48 47 46 45 45 44 44 44 43 43 43 43 43 44 45 46 46 47 48 48 48 48 47 47 46 46 45 44 44
40 42 43 44 45 46 46 47 47 47 48 48 49 49 50 50 50 50 50 50 49 48 47 46 44 43 42 42 41 41 41 41 42 43 44 45 46 47 47 48 49 48 47 46 45 44 44 43 43 42 42 42 43 44 45 46 46 47 47 47 47 46 45 44 43 42 42 41 41
41 42 43 45 45 46 46 47 47 48 48 49 49 50 50 50 50 49 49 48 48 47 46 45 44 42 42 41 41 41 41 42 44 45 46 46 47 48 48 49 50 49 47 45 44 43 43 42 42 41 41 41 42 43 44 45 45 46 46 45 45 43 42 41 41 40 40 40 39
42 43 44 45 45 46 46 47 47 48 49 49 49 49 49 50 49 49 48 46 45 45 45 44 43 42 42 42 42 43 43 44 44 45 46 47 48 48 49 49 49 48 46 44 43 42 41 40 40 39 39 40 41 42 42 43 43 44 44 43 43 42 41 40 40 40 40 40 39
42 43 44 44 45 46 46 47 48 48 49 49 49 49 48 48 48 47 46 44 43 42 43 43 42 43 43 43 44 44 44 44 44 45 46 47 48 48 48 48 48 46 44 42 41 40 39 38 37 37 37 37 39 39 40 41 41 41 42 42 42 42 41 41 41 41 42 41 40
42 43 43 44 45 46 47 47 47 48 48 48 48 48 47 46 46 45 43 41 40 40 41 42 42 43 43 43 43 44 45 45 45 46 46 47 47 45 44 45 45 44 42 40 38 37 36 35 34 34 33 34 35 36 37 39 40 41 41 42 43 43 43 43 43 43 43 43 41
42 43 43 44 45 46 46 47 47 47 47 47 47 46 45 44 43 42 41 39 39 39 40 42 43 42 42 42 43 44 46 46 46 46 45 45 44 43 41 41 42 41 39 37 36 34 33 33 32 31 31 32 33 35 36 38 40 41 42 42 43 44 45 44 44 44 44 44 43
42 43 44 44 45 45 46 46 46 46 46 45 45 44 43 42 40 39 39 39 39 39 40 41 42 42 42 42 43 44 46 47 46 45 43 42 41 40 39 39 39 39 37 35 33 33 32 31 31 30 30 31 33 35 37 38 40 42 43 43 43 44 45 45 45 45 45 45 45
Wind_Direction
299 305 311 315 317 318 318 318 317 317 317 316 316 316 316 316 316 316 316 316 316 315 315 314 314 314 315 314 314 314 313 313 312 312 311 311 310 310 310 309 309 308 308 308 307 306 306 305 303 302 300 299 298 298 297 297 297 297 296 296 296 295 295 294 293 292 292 291 291
302 308 313 316 318 318 318 318 317 316 316 315 315 315 316 316 316 316 316 315 315 314 314 314 314 314 314 314 314 313 313 312 312 311 311 310 310 310 310 309 309 309 308 308 308 307 306 305 304 302 300 299 299 298 298 297 297 297 297 296 296 296 295 294 293 293 293 292 291
304 310 314 316 318 318 319 318 317 316 315 315 314 315 315 315 315 315 315 314 314 314 313 313 313 313 313 313 313 312 312 311 311 311 310 310 310 310 309 309 309 309 309 308 308 307 306 305 304 302 300 299 299 298 298 298 297 297 296 296 296 295 295 294 294 294 294 293 291
306 311 315 317 318 319 319 318 316 316 315 314 314 315 315 315 315 314 314 314 313 313 313 313 313 312 312 312 312 311 311 311 310 310 310 309 309 309 309 309 309 308 308 308 308 307 306 305 304 302 300 299 299 298 298 298 298 297 296 296 295 295 295 294 294 294 293 292 291
307 312 315 317 318 319 318 317 316 316 315 315 315 315 315 315 314 314 313 313 313 312 312 312 312 311 311 311 311 311 310 310 310 310 309 309 309 309 309 308 308 308 308 308 307 306 306 305 303 301 300 300 299 299 298 298 298 297 296 295 295 294 294 294 293 293 292 291 290
309 312 315 317 318 318 318 317 316 316 315 315 315 315 315 314 314 313 313 312 312 311 311 311 311 311 311 310 310 310 310 310 309 309 309 308 308 308 308 308 308 307 307 307 306 306 305 304 302 301 300 300 299 299 298 298 297 296 296 295 293 293 292 292 291 290 290 289 288
310 314 316 317 318 318 317 317 316 316 315 315 315 315 314 314 313 312 311 311 310 310 310 310 310 310 310 310 310 309 309 309 309 308 308 308 307 307 307 307 307 306 306 306 305 304 304 303 302 301 301 300 299 298 298 297 296 295 294 292 292 291 289 289 289 288 287 287 286
311 314 316 317 318 318 317 316 316 315 315 315 314 314 313 313 312 311 310 310 309 309 309 310 310 310 310 309 309 309 309 309 308 308 308 307 307 307 307 306 306 306 305 305 304 304 303 302 302 301 301 300 299 298 297 296 295 293 292 291 290 290 289 288 288 288 287 286 285
312 314 316 317 317 317 316 316 316 315 315 314 314 313 312 312 311 310 309 309 309 309 309 309 310 309 309 309 309 308 308 308 308 307 307 307 307 306 306 306 305 305 305 305 304 304 304 303 303 302 301 300 299 298 297 295 294 293 291 290 289 289 288 287 287 287 286 285 283
312 315 316 316 316 316 316 315 315 314 314 313 312 312 311 310 310 309 309 308 308 309 309 309 309 309 308 308 308 308 308 308 307 307 307 306 306 306 306 306 305 305 305 305 305 305 305 304 304 303 302 300 298 297 296 294 292 291 290 288 287 287 287 286 285 285 285 284 282
312 314 315 316 316 315 315 315 314 313 312 312 311 310 310 309 309 308 308 308 308 308 308 309 309 308 308 308 308 308 308 308 307 307 306 306 306 306 306 306 306 306 307 307 307 306 306 305 304 303 302 299 297 295 293 292 290 289 288 287 286 286 286 285 284 283 283 282 282
313 314 315 315 315 315 314 314 313 312 311 310 310 309 309 308 308 308 308 308 308 308 308 309 309 308 308 308 308 308 308 307 307 307 307 307 307 307 307 308 308 308 308 307 307 307 306 305 303 302 300 299 296 293 291 290 289 288 287 287 286 285 285 285 284 283 282 281 280
313 314 314 315 314 314 313 312 311 310 309 309 309 308 308 308 308 308 308 307 308 308 308 309 309 309 309 309 309 308 308 307 307 307 307 307 308 308 308 308 308 308 308 307 306 306 305 304 302 300 299 298 296 293 291 290 288 287 286 286 286 285 284 284 284 283 282 280 278
313 314 314 314 313 313 312 311 310 309 308 308 308 308 308 307 307 307 307 307 308 308 309 309 309 309 309 309 309 308 308 308 308 308 308 308 308 308 308 308 308 307 307 306 305 305 304 303 302 300 298 296 295 293 292 290 288 287 286 285 285 284 284 284 284 284 282 280 278
313 313 313 313 312 311 310 309 308 308 307 307 307 307 307 307 307 308 308 308 309 309 310 310 310 310 310 309 309 309 309 308 308 308 308 308 308 308 308 307 307 306 306 305 305 304 303 302 301 299 297 295 294 293 292 290 288 287 286 285 284 284 284 285 285 284 283 281 279
312 312 312 311 310 309 308 308 307 307 307 307 307 307 307 307 308 308 309 309 309 310 310 310 310 310 310 309 309 309 309 309 308 308 308 308 307 307 307 306 306 305 305 305 304 303 302 301 300 299 297 294 293 292 291 290 288 286 285 285 285 284 284 284 284 283 283 282 280
311 311 310 309 308 308 307 307 306 306 306 307 307 307 308 308 309 309 309 310 310 310 310 310 310 310 309 309 309 309 309 308 308 308 308 307 307 306 306 305 305 305 305 304 304 303 302 301 300 298 296 294 292 290 289 289 287 286 285 285 284 284 283 283 282 282 282 281 280
309 309 308 308 307 306 306 306 306 306 307 307 307 308 308 309 309 310 310 310 311 311 310 310 310 309 309 308 308 308 308 308 308 307 307 307 306 306 305 305 304 304 304 304 303 303 302 301 299 297 295 293 291 289 288 287 286 285 284 284 283 283 283 282 282 282 281 280 280
307 307 307 306 306 306 306 307 307 307 307 308 308 309 309 309 310 310 310 311 311 311 310 310 309 309 309 308 308 308 308 308 308 307 307 306 306 305 305 305 304 304 304 303 302 301 300 299 297 295 293 291 289 288 287 286 284 283 283 282 282 282 283 283 283 283 282 282 281
306 306 306 306 306 307 307 307 308 308 308 309 309 309 310 310 310 311 311 311 311 311 310 309 309 309 308 308 308 308 308 308 307 307 306 306 306 305 305 305 304 304 303 302 301 300 298 296 294 292 291 289 288 287 286 284 283 283 282 282 282 282 283 284 284 284 284 283 283
306 306 306 307 307 308 308 308 308 309 309 309 310 310 310 311 311 311 311 311 311 310 310 309 309 309 309 309 309 309 309 308 307 307 306 306 306 305 305 304 304 303 302 301 300 298 296 295 292 290 288 287 286 285 285 284 283 282 282 282 283 283 284 285 285 285 284 284 283
306 307 307 308 308 308 309 309 309 309 309 309 310 310 311 311 311 311 311 311 310 310 309 309 309 309 310 310 310 310 309 308 307 306 306 306 305 305 304 304 303 302 301 300 299 297 295 293 291 289 287 287 286 285 285 284 284 283 283 283 284 284 284 284 284 284 284 283 282
307 308 308 309 309 309 309 309 309 309 309 310 310 311 311 311 311 311 310 310 310 309 309 309 310 310 310 310 310 309 309 308 307 307 306 305 305 304 304 303 301 300 299 298 297 296 294 292 291 289 288 288 287 286 286 286 285 284 284 284 283 283 282 282 282 282 282 282 282
308 309 309 309 309 309 309 309 309 309 310 310 311 311 311 311 311 310 310 310 309 309 310 310 310 311 311 310 310 309 308 308 307 306 306 305 304 303 302 301 300 298 297 296 295 294 292 291 290 290 289 289 287 287 286 286 286 285 284 283 282 282 281 281 280 280 280 281 281
309 309 309 309 309 309 309 309 310 310 310 311 311 311 311 311 310 310 310 310 310 310 310 311 311 311 311 310 309 309 308 307 306 305 304 304 303 302 300 299 298 296 295 294 293 292 291 289 289 288 288 287 286 286 285 285 285 284 283 281 280 280 280 279 279 280 280 280 281
310 309 309 309 309 309 309 310 310 311 311 311 311 311 311 311 310 310 310 310 311 311 311 312 312 312 311 310 309 308 307 306 305 304 303 302 301 301 300 299 297 295 294 293 292 292 291 289 288 287 286 286 285 285 284 284 284 283 282 280 279 279 279 280 280 281 281 281 281
310 309 309 309 309 309 310 311 311 311 311 311 311 311 311 311 311 311 311 311 312 312 312 313 312 312 311 310 309 307 307 306 304 303 302 301 300 300 299 299 297 295 294 293 293 292 291 290 290 289 287 286 286 285 284 285 284 284 283 282 281 281 281 281 282 283 283 283 282
309 309 309 309 310 310 311 311 311 311 311 311 311 311 311 312 312 312 312 312 313 313 313 313 312 312 310 309 308 307 306 306 305 303 302 301 300 299 299 298 296 295 294 294 294 293 292 291 291 290 289 288 286 286 286 286 286 285 285 284 283 282 282 282 283 283 283 283 282
310 310 310 310 311 311 311 312 311 311 312 312 312 312 312 312 313 313 313 313 313 313 313 313 312 311 310 309 308 307 307 306 305 304 303 302 301 299 298 297 296 295 295 295 294 293 293 292 291 290 289 289 288 287 287 286 286 286 285 284 283 283 283 283 283 282 282 281 281
310 310 311 311 311 311 312 312 312 312 312 312 313 313 313 313 313 313 314 314 313 313 313 313 312 311 310 309 309 308 307 307 306 305 303 302 300 299 299 299 298 297 296 295 294 293 293 292 292 291 290 289 289 288 287 287 287 286 286 285 285 285 284 283 282 281 281 281 281
311 311 311 312 312 312 312 312 312 313 313 313 314 314 314 314 314 314 314 314 313 313 313 313 312 311 311 310 310 309 308 307 306 304 302 301 300 300 300 300 299 298 296 296 295 294 293 293 292 292 291 291 290 289 288 288 287 287 287 287 286 285 284 283 282 281 281 281 281
312 312 312 312 312 312 312 313 313 313 314 314 314 314 314 314 314 314 314 313 313 313 313 313 312 312 311 311 310 309 308 307 305 304 304 303 302 301 300 299 298 297 297 296 296 295 295 294 293 293 293 292 291 290 289 288 288 287 287 287 286 285 284 283 282 281 281 281 281
313 312 312 312 312 313 313 313 314 314 314 314 314 314 314 314 314 314 314 314 313 313 313 313 312 312 311 311 310 309 308 307 306 305 304 303 302 301 300 299 298 298 298 298 297 297 296 295 295 294 294 293 292 291 290 289 288 288 288 287 287 286 285 284 283 283 282 282 282
313 313 313 313 313 313 314 314 315 315 315 314 314 314 314 314 314 314 314 314 314 314 313 313 312 311 311 310 309 308 307 306 305 304 303 302 302 301 300 300 299 299 300 299 299 298 297 296 296 295 294 294 293 292 291 291 290 290 289 289 288 288 287 287 286 286 285 285 285
314 314 314 314 314 314 315 315 315 315 315 314 314 314 314 314 314 314 314 314 314 314 314 313 313 312 311 309 308 307 305 304 303 303 303 302 302 302 301 301 302 301 301 300 299 298 297 297 296 296 295 295 294 293 293 292 292 291 291 290 290 290 289 289 289 288 288 287 287
315 315 315 315 315 315 315 315 315 315 314 314 314 314 314 314 314 314 315 315 315 315 314 314 313 311 310 308 307 305 303 303 303 304 304 304 304 304 303 303 303 303 302 301 300 299 298 298 298 297 297 296 296 295 294 294 293 292 292 292 292 292 292 292 291 291 290 289 288
315 315 315 315 315 315 315 315 315 315 314 314 314 315 315 315 315 315 316 316 316 315 314 313 312 310 308 306 306 305 305 305 305 305 305 305 305 305 304 304 305 304 304 303 302 302 301 301 300 300 299 298 297 296 295 295 294 294 293 294 294 294 295 295 294 294 293 291 290
316 316 316 315 315 315 315 315 315 315 315 315 315 315 315 315 316 316 317 317 315 314 312 311 309 308 307 307 307 306 306 306 306 306 306 306 306 305 304 304 305 305 306 306 306 305 305 304 304 303 302 300 299 297 297 296 296 296 296 296 297 297 297 297 296 295 294 293 292
316 316 316 315 315 315 315 315 315 315 315 315 315 316 316 316 316 316 316 315 313 311 309 308 307 307 307 308 308 308 307 307 307 306 306 306 306 305 304 304 305 306 308 309 309 309 309 308 308 307 306 304 302 300 299 299 298 298 298 298 298 299 299 298 297 296 295 295 294
316 316 316 315 315 315 315 315 315 315 316 316 316 316 317 317 316 315 314 312 309 308 307 307 308 308 309 309 309 308 308 308 307 307 306 306 306 306 306 306 306 308 310 312 313 313 314 314 312 311 310 308 306 304 303 301 300 299 299 299 298 298 298 298 297 296 295 295 295
316 316 316 316 316 316 316 316 316 316 317 317 317 317 316 316 314 312 311 309 309 309 309 310 310 310 310 310 309 308 307 307 307 307 308 308 309 310 310 310 310 311 313 316 317 318 318 317 316 315 314 312 310 307 304 302 299 298 298 298 298 297 296 297 297 297 296 295 295